Weather History for KDVO - March, 2013

Change the Weather History Date:

Saturday, March 16, 2013

  Actual Average (KAPC) Record (KAPC)
Temperature  
Mean Temperature 55 °F 52 °F  
Max Temperature 71 °F 64 °F 85 °F (2004)
Min Temperature 39 °F 40 °F 31 °F (2002)
Degree Days  
Heating Degree Days 10    
Month to date heating degree days  
Since 1 July heating degree days  
Cooling Degree Days 0    
Month to date cooling degree days  
Year to date cooling degree days  
Growing Degree Days 5 (Base 50)    
Moisture  
Dew Point 44 °F    
Average Humidity 69    
Maximum Humidity 100    
Minimum Humidity 31    
Precipitation  
Precipitation 0.00 in - 1.43 in (1963)
Month to date precipitation  
Year to date precipitation  
Sea Level Pressure  
Sea Level Pressure 30.07 in    
Wind  
Wind Speed 5 mph (WNW)    
Max Wind Speed 22 mph    
Max Gust Speed 31 mph    
Visibility 9 miles    
Events Fog    
T = Trace of Precipitation, MM = Missing Value Source: NWS Daily Summary

Daily Weather History Graph

Daily Weather History Graph

Search for Another Location

Airport or City:

Trip Planner

Search our weather history database for the weather conditions in past years. The results will help you decide how hot, cold, wet, or windy it might be!

Date:

Astronomy

Mar. 16, 2013 Rise Set
Actual Time 7:19 AM PDT 7:18 PM PDT
Civil Twilight 6:53 AM PDT 7:44 PM PDT
Nautical Twilight 6:22 AM PDT 8:15 PM PDT
Astronomical Twilight 5:51 AM PDT 8:46 PM PDT
Moon 9:57 AM PDT (3/16) No Moon Set
Length of Visible Light 12h 51m
Length of Day
11h 59m
Waxing Crescent, 24% of the Moon is Illuminated
Mar 16
Waxing Crescent
Mar 19
First Quarter
Mar 27
Full
Apr 2
Last Quarter
Apr 10
New

Hourly Weather History & Observations

Time (PDT) Temp. Windchill Dew Point Humidity Pressure Visibility Wind Dir Wind Speed Gust Speed Precip Events Conditions
12:15 AM 46.4 °F 43.5 °F 46.4 °F 100% 30.08 in 10.0 mi NE 5.8 mph - N/A   Clear
12:35 AM 46.4 °F 45.2 °F 46.4 °F 100% 30.07 in 10.0 mi NE 3.5 mph - N/A   Clear
12:55 AM 44.6 °F - 44.6 °F 100% 30.08 in 10.0 mi North - - N/A   Clear
1:15 AM 46.4 °F - 46.4 °F 100% 30.07 in 10.0 mi Calm Calm - N/A   Clear
1:35 AM 46.4 °F - 46.4 °F 100% 30.07 in 10.0 mi Calm Calm - N/A   Clear
1:55 AM 44.6 °F 43.1 °F 44.6 °F 100% 30.08 in 10.0 mi NW 3.5 mph - N/A   Clear
2:15 AM 44.6 °F - 44.6 °F 100% 30.08 in 10.0 mi Calm Calm - N/A   Clear
2:35 AM 44.6 °F 43.1 °F 44.6 °F 100% 30.08 in 10.0 mi SSW 3.5 mph - N/A   Clear
2:55 AM 44.6 °F - 44.6 °F 100% 30.08 in 10.0 mi Calm Calm - N/A   Clear
3:35 AM 44.6 °F - 44.6 °F 100% 30.07 in 10.0 mi Calm Calm - N/A   Clear
3:55 AM 42.8 °F 41.1 °F 42.8 °F 100% 30.07 in 10.0 mi SSW 3.5 mph - N/A   Clear
4:15 AM 42.8 °F - 42.8 °F 100% 30.07 in 10.0 mi Calm Calm - N/A   Clear
4:35 AM 42.8 °F - 42.8 °F 100% 30.07 in 5.0 mi Calm Calm - N/A   Clear
4:55 AM 41.0 °F 39.0 °F 41.0 °F 100% 30.07 in 1.8 mi NE 3.5 mph - N/A   Clear
5:15 AM 39.2 °F - 39.2 °F 100% 30.07 in 0.5 mi Calm Calm - N/A Fog Fog
5:35 AM 41.0 °F - 41.0 °F 100% 30.06 in 0.2 mi Calm Calm - N/A Fog Fog
5:55 AM 42.8 °F - 42.8 °F 100% 30.06 in 8.0 mi Calm Calm - N/A   Scattered Clouds
6:15 AM 41.0 °F 39.0 °F 41.0 °F 100% 30.06 in 1.8 mi SSW 3.5 mph - N/A   Clear
6:35 AM 41.0 °F 39.0 °F 41.0 °F 100% 30.06 in 9.0 mi South 3.5 mph - N/A   Clear
6:55 AM 39.2 °F 37.0 °F 39.2 °F 100% 30.07 in 3.0 mi North 3.5 mph - N/A   Clear
7:15 AM 39.2 °F - 39.2 °F 100% 30.08 in 0.2 mi Calm Calm - N/A Fog Fog
7:35 AM 39.2 °F 37.0 °F 39.2 °F 100% 30.09 in 0.2 mi NW 3.5 mph - N/A Fog Fog
7:55 AM 39.2 °F 37.0 °F 39.2 °F 100% 30.09 in 2.5 mi NNE 3.5 mph - N/A   Clear
8:15 AM 41.0 °F - 41.0 °F 100% 30.09 in 0.5 mi Calm Calm - N/A Fog Fog
8:35 AM 42.8 °F - 42.8 °F 100% 30.10 in 10.0 mi Calm Calm - N/A   Clear
8:55 AM 44.6 °F - 44.6 °F 100% 30.11 in 10.0 mi Calm Calm - N/A   Clear
9:15 AM 48.2 °F - 48.2 °F 100% 30.10 in 10.0 mi Calm Calm - N/A   Clear
9:35 AM 50.0 °F - 50.0 °F 100% 30.10 in 10.0 mi Calm Calm - N/A   Clear
9:55 AM 50.0 °F - 50.0 °F 100% 30.11 in 10.0 mi Calm Calm - N/A   Clear
10:15 AM 53.6 °F - 51.8 °F 94% 30.11 in 10.0 mi Calm Calm - N/A   Clear
10:35 AM 55.4 °F - 51.8 °F 88% 30.12 in 10.0 mi Calm Calm - N/A   Clear
10:55 AM 57.2 °F - 51.8 °F 82% 30.12 in 10.0 mi SW 3.5 mph - N/A   Clear
11:15 AM 60.8 °F - 51.8 °F 72% 30.13 in 10.0 mi SSE 3.5 mph - N/A   Clear
11:35 AM 62.6 °F - 50.0 °F 63% 30.11 in 10.0 mi North 8.1 mph - N/A   Clear
11:55 AM 62.6 °F - 46.4 °F 55% 30.10 in 10.0 mi Calm Calm - N/A   Clear
12:15 PM 64.4 °F - 46.4 °F 52% 30.10 in 10.0 mi Calm Calm - N/A   Clear
12:35 PM 64.4 °F - 44.6 °F 49% 30.10 in 9.0 mi Calm Calm - N/A   Clear
12:55 PM 66.2 °F - 44.6 °F 46% 30.08 in 10.0 mi Calm Calm - N/A   Clear
1:15 PM 68.0 °F - 44.6 °F 43% 30.08 in 10.0 mi Calm Calm - N/A   Clear
1:35 PM 69.8 °F - 44.6 °F 40% 30.08 in 10.0 mi North 8.1 mph - N/A   Clear
1:55 PM 71.6 °F - 46.4 °F 41% 30.07 in 10.0 mi NNW 9.2 mph - N/A   Clear
2:15 PM 69.8 °F - 48.2 °F 46% 30.06 in 10.0 mi SW 12.7 mph - N/A   Clear
2:35 PM 71.6 °F - 48.2 °F 43% 30.05 in 10.0 mi West 9.2 mph 16.1 mph N/A   Clear
2:55 PM 71.6 °F - 46.4 °F 41% 30.05 in 10.0 mi WSW 15.0 mph - N/A   Partly Cloudy
3:15 PM 68.0 °F - 48.2 °F 49% 30.05 in 10.0 mi WSW 12.7 mph 19.6 mph N/A   Clear
3:35 PM 66.2 °F - 46.4 °F 49% 30.04 in 10.0 mi WSW 15.0 mph 23.0 mph N/A   Clear
3:55 PM 69.8 °F - 44.6 °F 40% 30.04 in 10.0 mi West 15.0 mph 19.6 mph N/A   Clear
4:15 PM 68.0 °F - 44.6 °F 43% 30.04 in 10.0 mi West 12.7 mph 18.4 mph N/A   Clear
4:35 PM 69.8 °F - 42.8 °F 38% 30.03 in 10.0 mi West 11.5 mph - N/A   Clear
4:55 PM 71.6 °F - 39.2 °F 31% 30.04 in 10.0 mi West 11.5 mph 18.4 mph N/A   Clear
5:15 PM 69.8 °F - 41.0 °F 35% 30.03 in 10.0 mi West 11.5 mph 17.3 mph N/A   Clear
5:35 PM 68.0 °F - 41.0 °F 37% 30.03 in 10.0 mi West 10.4 mph - N/A   Clear
5:55 PM 66.2 °F - 41.0 °F 40% 30.03 in 10.0 mi West 12.7 mph - N/A   Clear
6:15 PM 64.4 °F - 41.0 °F 42% 30.03 in 10.0 mi West 10.4 mph - N/A   Clear
6:35 PM 62.6 °F - 46.4 °F 55% 30.04 in 10.0 mi ESE 6.9 mph - N/A   Clear
6:55 PM 62.6 °F - 44.6 °F 52% 30.04 in 10.0 mi ENE 4.6 mph - N/A   Clear
7:15 PM 59.0 °F - 44.6 °F 59% 30.04 in 10.0 mi NNE 4.6 mph - N/A   Clear
7:35 PM 62.6 °F - 37.4 °F 39% 30.04 in 10.0 mi West 13.8 mph 18.4 mph N/A   Clear
7:55 PM 64.4 °F - 39.2 °F 40% 30.03 in 10.0 mi West 15.0 mph 23.0 mph N/A   Clear
8:15 PM 62.6 °F - 39.2 °F 42% 30.05 in 10.0 mi WNW 15.0 mph 23.0 mph N/A   Clear
8:35 PM 62.6 °F - 37.4 °F 39% 30.05 in 10.0 mi WNW 11.5 mph - N/A   Clear
8:55 PM 64.4 °F - 37.4 °F 37% 30.06 in 10.0 mi WNW 10.4 mph 19.6 mph N/A   Clear
9:15 PM 64.4 °F - 37.4 °F 37% 30.06 in 10.0 mi NW 15.0 mph 24.2 mph N/A   Clear
9:35 PM 62.6 °F - 39.2 °F 42% 30.08 in 10.0 mi WNW 15.0 mph 20.7 mph N/A   Clear
9:55 PM 62.6 °F - 39.2 °F 42% 30.08 in 10.0 mi WNW 20.7 mph 25.3 mph N/A   Clear
10:15 PM 62.6 °F - 39.2 °F 42% 30.09 in 10.0 mi NW 17.3 mph 27.6 mph N/A   Clear
10:35 PM 60.8 °F - 39.2 °F 45% 30.09 in 10.0 mi NW 21.9 mph 26.5 mph N/A   Clear
10:55 PM 60.8 °F - 39.2 °F 45% 30.09 in 10.0 mi NW 20.7 mph 31.1 mph N/A   Clear
11:15 PM 60.8 °F - 39.2 °F 45% 30.10 in 10.0 mi NW 17.3 mph 26.5 mph N/A   Clear
11:35 PM 59.0 °F - 41.0 °F 51% 30.10 in 10.0 mi NW 18.4 mph 26.5 mph N/A   Clear
11:55 PM 59.0 °F - 41.0 °F 51% 30.10 in 10.0 mi NW 13.8 mph 20.7 mph N/A   Clear